Location: B�rgermoos
(47.6500°N, 9.0667°E)
Time: 18:30:12
(UTC+00:00)

Tiros 1 - Pass Details

Date: 10 August 2021
Orbit: 630 x 663 km, 48.4° (Epoch: 20 September)

Event Time Altitude Azimuth Distance (km) Brightness Sun altitude
Rises 16:50:17 0° 273° (W) 2,993 12.3 17.8°
Reaches altitude 10° 16:52:39 10° 274° (W) 2,078 12.5 17.4°
Maximum altitude 16:57:28 81° 3° (N) 671 7.6 16.6°
Drops below altitude 10° 17:02:14 10° 90° (E) 2,061 9.2 15.8°
Sets 17:04:34 0° 92° (E) 2,966 9.9 15.4°
